Location: *
(52.2090°N, 4.1550°W)
Time: 23:16:18
(UTC+00:00)

Cosmos 2180 Rocket - Pass Details

Date: 19 July 2019
Orbit: 954 x 1004 km, 82.9° (Epoch: 22 August)

Event Time Altitude Azimuth Distance (km) Brightness Sun altitude
Exits shadow 23:00:43 17° 189° (S) 2,224 5.9 -14.9°
Maximum altitude 23:05:38 89° 278° (W) 964 4.5 -15.1°
Drops below altitude 10° 23:11:49 10° 10° (N) 2,697 7.8 -15.4°
Sets 23:14:19 0° 11° (N) 3,648 8.7 -15.5°
